Fort Bragg, NC

8:10 AM EDT on April 21, 2018 (GMT -0400)
Simmons Army Air Field

Weather History for KFBG - January, 2013

Change the Weather History Date:

Monday, January 14, 2013

  Actual Average Record
Temperature  
Mean Temperature 66 °F -  
Max Temperature 76 °F 50 °F 76 °F (2013)
Min Temperature 57 °F 32 °F 19 °F (2011)
Cooling Degree Days 2    
Growing Degree Days 16 (Base 50)    
Moisture  
Dew Point 60 °F    
Average Humidity 78    
Maximum Humidity 99    
Minimum Humidity 59    
Precipitation  
Precipitation 0.00 in - - ()
Sea Level Pressure  
Sea Level Pressure 30.12 in    
Wind  
Wind Speed 6 mph (SSW)    
Max Wind Speed 13 mph    
Max Gust Speed 18 mph    
Visibility 10 miles    
Events      
Averages and records for this station are not official NWS values.
T = Trace of Precipitation, MM = Missing Value Source: NWS Daily Summary

Daily Weather History Graph

Daily Weather History Graph

Search for Another Location

Airport or City:

Astronomy

Jan. 14, 2013 Rise Set
Actual Time 7:23 AM EST 5:26 PM EST
Civil Twilight 6:56 AM EST 5:54 PM EST
Nautical Twilight 6:25 AM EST 6:25 PM EST
Astronomical Twilight 5:54 AM EST 6:55 PM EST
Moon 9:05 AM EST (1/14) 8:59 PM EST (1/14)
Length of Visible Light 10h 57m
Length of Day
10h 02m
Waxing Crescent, 11% of the Moon is Illuminated
Jan 14
Waxing Crescent
Jan 18
First Quarter
Jan 26
Full
Feb 3
Last Quarter
Feb 10
New

Hourly Weather History & Observations

Time (EST) Temp. Dew Point Humidity Pressure Visibility Wind Dir Wind Speed Gust Speed Precip Events Conditions
12:55 AM 63.5 °F 58.5 °F 84% 30.10 in 10.0 mi South 6.9 mph - N/A   Clear
1:55 AM 63.1 °F 57.9 °F 83% 30.12 in 10.0 mi SSW 8.1 mph - N/A   Clear
2:55 AM 62.2 °F 57.4 °F 84% 30.12 in 10.0 mi SSW 4.6 mph - N/A   Clear
3:55 AM 61.3 °F 57.2 °F 86% 30.11 in 10.0 mi South 3.5 mph - N/A   Clear
4:55 AM 59.4 °F 57.0 °F 92% 30.12 in 10.0 mi South 3.5 mph - N/A   Clear
5:55 AM 58.1 °F 57.6 °F 98% 30.11 in 10.0 mi South 3.5 mph - N/A   Clear
6:55 AM 57.9 °F 57.7 °F 99% 30.13 in 10.0 mi South 4.6 mph - N/A   Clear
7:55 AM 58.6 °F 58.3 °F 99% 30.14 in 10.0 mi South 4.6 mph - N/A   Partly Cloudy
8:55 AM 61.5 °F 61.3 °F 99% 30.15 in 10.0 mi SSW 5.8 mph - N/A   Partly Cloudy
9:55 AM 66.2 °F 60.8 °F 83% 30.16 in 10.0 mi SW 9.2 mph - N/A   Clear
10:55 AM 71.6 °F 61.3 °F 70% 30.14 in 10.0 mi SSW 10.4 mph 18.4 mph N/A   Clear
11:55 AM 75.2 °F 61.3 °F 62% 30.14 in 10.0 mi SW 9.2 mph 18.4 mph N/A   Partly Cloudy
12:55 PM 75.0 °F 61.2 °F 62% 30.10 in 10.0 mi SW 12.7 mph 18.4 mph N/A   Partly Cloudy
1:55 PM 76.6 °F 61.5 °F 59% 30.09 in 10.0 mi WSW 11.5 mph - N/A   Partly Cloudy
2:55 PM 76.5 °F 61.2 °F 59% 30.09 in 10.0 mi Variable 5.8 mph - N/A   Partly Cloudy
3:55 PM 76.3 °F 61.3 °F 60% 30.09 in 10.0 mi South 5.8 mph - N/A   Clear
4:55 PM 75.0 °F 61.0 °F 62% 30.11 in 10.0 mi South 4.6 mph - N/A   Partly Cloudy
5:55 PM 73.2 °F 61.0 °F 65% 30.13 in 10.0 mi South 3.5 mph - N/A   Mostly Cloudy
6:55 PM 70.7 °F 61.3 °F 72% 30.13 in 10.0 mi Calm Calm - N/A   Partly Cloudy
7:55 PM 68.5 °F 61.3 °F 78% 30.13 in 10.0 mi SSE 3.5 mph - N/A   Partly Cloudy
8:55 PM 68.0 °F 61.0 °F 78% 30.12 in 10.0 mi South 5.8 mph - N/A   Partly Cloudy
9:55 PM 67.3 °F 61.2 °F 81% 30.12 in 10.0 mi South 5.8 mph - N/A   Clear
10:55 PM 66.6 °F 61.0 °F 82% 30.12 in 10.0 mi South 6.9 mph - N/A   Clear
11:55 PM 66.0 °F 60.1 °F 81% 30.12 in 10.0 mi South 4.6 mph - N/A   Clear